Weather in Verkhneimbatsk

Russia / Krasnoyarsk Krai     63°09′17″N   87°58′01″E
temp.,
°C
wind,
m/s
gust,
m/s
humid.,
%
clouds,
%
prec.,
mm/h
press.,
hPa
HPBL,
m
7 may, fri
fri701:00+4se8197873 0.0 1002569
04:00+4sse61585100 0.1 1000601
07:00+5se71690100 1.8 997710
10:00+5sse51298100 13.9 998526
13:00+3nnw379657 14.4 1001306
16:00+7wnw3473100 0.0 1003132
19:00+5sw008599 0.0 100410
22:00+2ese229058 0.0 100420
8 may, sat
sat801:00+2se1192100 0.0 100514
04:00+1ese2294100 0.1 100539
07:00+2s1196100 0.3 1006117
10:00+3sw1195100 0.1 1006245
13:00+3sw2296100 0.1 1008197
16:00+3sw2398100 0.0 1009200
19:00+5w148990 0.0 1011300
22:00+4nnw3792100 0.1 1013366
9 may, sun
sun901:00+2nw4798100 0.1 1014498
04:00+2nw3698100 0.1 1016475
07:00+2nw2498100 0.3 1018335
10:00+2nw2399100 0.0 1020274
13:00+3nw2397100 0.1 1022325
16:00+5nw2382100 0.0 1023600
19:00+6nw237467 0.0 1024699
22:00+4wnw2485100 0.0 102692
10 may, mon
mon1001:00+4nw258891 0.0 1026130
04:00+2nnw229413 0.0 102733
07:00+4n248718 0.0 1028201
10:00+8n236619 0.0 1028847
13:00+9nnw4464100 0.0 10281016
16:00+9n3360100 0.0 10281057
19:00+7n3466100 0.0 1028432
22:00+5n3683100 0.0 1028227
11 may, tue
tue1101:00+4nnw2389100 0.0 1028104
04:00+5ne1184100 0.0 102814
07:00+5ene2383100 0.0 1028128
10:00+8e236676 0.0 1028510
13:00+13e124522 0.0 10271644
16:00+14ene114065 0.0 10251887
19:00+13ese435094 0.0 1025857
22:00+10ese3765100 0.0 1025251